RH
33 33 33 32 32 32 32 32 32 32 33 33 33 34 34 34 34 34 34 34 34 34 33 33 32 32 31 31 30 30 29 29 28 28 27 27 27 26 26 26 26 25 25 25 25 24 24 24 24 24 24 24 24 25 25 26 27 28 28 29 29 29 29 29 29 29 28 28 28
32 32 32 32 32 32 33 33 33 34 34 35 35 35 35 35 35 35 35 34 34 33 33 32 31 31 30 29 29 28 27 27 26 26 26 26 26 25 25 25 25 25 25 24 24 24 24 23 23 23 23 23 23 23 23 24 25 25 26 27 27 27 27 27 27 27 26 26 26
32 32 32 33 33 34 34 35 35 36 36 36 36 36 36 36 36 35 35 34 33 32 31 30 30 29 29 28 27 27 26 26 25 25 25 25 25 25 25 25 25 25 24 24 24 24 23 23 22 22 21 21 21 21 21 21 22 22 22 23 23 24 24 24 24 24 23 23 23
33 33 34 35 36 36 37 37 37 37 38 38 38 37 37 37 36 35 34 32 31 30 30 29 28 27 27 26 26 25 25 25 25 25 25 25 25 25 25 25 25 25 24 24 24 23 22 22 21 20 19 19 18 18 18 18 18 18 18 18 18 19 19 19 20 19 19 19 19
34 35 36 37 38 38 39 40 40 40 40 40 40 39 39 38 36 34 32 31 30 29 28 27 26 26 25 25 25 25 25 25 25 25 25 26 26 25 25 25 25 24 24 23 23 22 21 20 19 18 17 17 16 15 15 14 14 13 13 13 13 13 14 14 14 14 14 14 15
36 37 37 38 39 40 41 42 42 43 43 43 42 41 40 38 35 33 31 29 28 28 27 26 25 25 24 24 25 25 25 25 26 26 26 26 26 26 26 25 24 24 23 22 21 20 19 18 17 16 15 15 14 13 12 11 11 10 10 9 9 9 9 10 10 10 11 11 12
36 37 38 39 40 41 42 43 44 44 44 44 43 42 40 37 34 32 29 28 27 27 26 25 24 24 24 24 25 25 26 26 26 27 27 27 26 26 25 25 24 23 22 21 20 19 18 17 16 15 14 13 13 12 11 10 10 9 8 8 8 8 7 7 8 8 9 10 10
36 37 38 39 40 41 42 43 44 44 45 44 43 41 38 35 32 30 28 28 27 26 26 25 24 24 25 25 25 26 26 27 27 27 27 27 26 26 25 24 24 23 22 20 19 18 17 16 15 14 14 13 12 12 11 10 10 9 8 8 8 7 7 7 7 8 8 9 10
36 36 37 38 39 40 41 42 43 44 43 43 41 39 36 32 30 28 28 27 27 26 25 25 25 25 25 25 26 26 27 27 27 27 27 27 26 26 25 25 24 23 22 21 20 19 18 17 16 15 14 13 13 12 11 11 10 9 9 8 8 7 7 7 7 8 8 9 10
36 37 38 38 39 40 40 41 41 41 41 40 38 35 33 30 28 27 27 27 26 26 25 25 25 25 25 26 26 26 27 27 27 27 27 27 26 26 26 25 24 24 23 22 21 20 19 18 16 16 15 14 13 12 12 11 10 10 9 8 8 7 7 7 8 8 8 9 10
38 38 39 39 39 39 39 38 37 36 36 34 33 32 30 28 28 27 27 27 26 26 25 25 25 25 25 26 26 26 26 27 27 27 27 27 27 27 26 26 25 24 24 23 22 20 19 18 17 16 15 15 14 13 12 12 11 10 9 9 8 8 7 7 8 9 10 10 12
40 40 40 41 41 40 39 37 35 33 31 30 29 29 28 27 27 27 27 26 26 26 26 25 25 25 25 26 26 26 26 27 27 27 27 27 27 27 27 27 26 25 24 23 22 21 20 19 18 17 16 15 14 13 13 12 11 10 10 9 8 8 8 8 9 10 11 13 14
42 42 43 43 44 43 41 38 35 32 29 27 27 27 27 27 27 27 27 27 26 26 25 25 25 26 26 26 26 27 27 27 27 28 28 27 27 27 27 27 26 26 25 24 23 21 20 19 18 17 16 15 14 13 12 12 11 10 9 9 9 9 9 10 10 11 13 14 16
43 44 45 46 46 44 42 40 36 33 29 27 26 26 27 27 28 27 27 27 27 26 26 25 26 26 26 26 27 27 27 27 28 28 28 28 28 28 27 27 26 26 24 24 22 21 19 18 17 16 15 14 14 13 12 11 10 9 9 9 10 10 11 11 12 13 15 17 19
44 45 46 47 46 44 42 40 37 33 30 27 26 26 27 28 28 28 28 27 27 26 26 26 26 26 27 27 27 27 27 27 28 28 28 28 28 28 27 27 26 25 24 23 21 20 18 17 16 15 14 13 12 12 11 10 10 9 9 10 10 11 12 13 14 16 18 20 22
45 46 47 47 45 43 40 38 35 33 30 27 26 26 27 29 29 28 28 28 27 26 26 26 26 26 27 27 27 27 27 28 28 28 28 28 28 27 26 26 24 23 22 21 19 18 16 15 14 13 12 12 11 11 10 10 10 10 10 11 12 13 14 16 17 19 21 23 26
46 47 47 46 44 41 39 36 33 31 28 26 25 26 27 29 29 29 29 28 27 27 26 26 26 27 27 27 27 28 28 28 28 28 28 28 27 26 25 24 23 22 20 19 17 16 15 14 13 12 11 11 10 10 10 10 11 11 12 13 14 16 17 19 21 23 25 27 29
48 47 47 45 43 40 37 34 31 29 27 25 25 26 28 29 30 29 29 28 27 27 27 27 27 27 27 27 28 28 28 28 28 28 28 28 27 26 24 23 22 20 18 17 15 14 13 12 11 11 10 10 10 11 11 12 12 13 15 16 17 19 21 22 24 26 28 30 33
49 48 46 44 41 37 34 31 29 27 25 25 26 27 29 30 30 29 29 28 27 27 27 27 27 28 28 28 28 28 29 29 29 28 28 27 26 25 23 21 20 18 16 15 14 13 12 11 11 11 11 11 12 12 13 14 15 16 18 19 21 22 23 25 27 28 30 32 35
49 47 44 41 37 34 31 28 26 25 25 26 27 28 29 30 30 29 29 28 28 27 27 27 28 28 28 28 29 29 29 29 29 28 27 26 25 23 21 19 18 16 15 13 12 11 11 11 11 11 12 13 13 15 16 17 18 19 21 22 23 24 26 27 28 30 32 34 37
47 44 41 37 34 31 28 26 25 25 26 27 28 29 30 30 30 29 28 28 28 27 28 28 28 28 28 29 29 29 29 29 29 27 26 25 22 20 18 17 15 14 13 12 11 11 11 11 12 13 14 15 16 17 19 20 21 22 23 24 25 26 27 28 30 31 33 36 39
43 39 36 33 30 28 26 25 26 26 27 29 29 30 30 30 30 29 28 28 27 27 28 28 28 29 29 29 29 29 29 28 27 26 24 22 20 18 16 15 14 13 12 11 11 12 12 13 14 15 17 18 19 20 21 22 23 24 24 25 26 26 27 29 30 32 34 37 39
36 33 31 29 28 27 26 26 27 28 29 30 30 30 30 30 29 28 28 27 27 28 28 28 29 29 29 29 29 28 27 26 25 23 21 19 17 16 14 13 12 12 12 12 12 13 14 15 16 18 19 20 21 22 22 23 24 24 24 25 25 25 26 28 29 31 33 36 37
32 30 29 29 28 28 28 28 29 29 30 30 30 30 30 29 28 28 27 27 28 28 28 29 29 29 29 29 28 27 25 23 22 20 18 17 15 14 13 12 12 12 12 13 14 15 16 18 19 20 21 22 22 22 22 22 22 22 23 23 23 23 24 25 26 28 30 32 33
31 31 31 30 29 29 29 29 30 30 31 31 30 30 29 28 28 28 28 28 28 28 29 29 29 29 28 27 26 24 22 20 19 17 16 14 13 12 12 12 12 12 13 14 15 17 18 20 21 22 22 22 22 21 21 20 20 20 20 21 21 22 22 22 24 25 26 27 28
32 32 32 31 30 30 30 30 31 31 31 31 30 29 28 28 28 28 28 28 29 29 29 29 29 28 27 25 23 21 19 18 16 15 13 12 12 11 11 12 12 13 14 15 16 18 19 20 21 21 22 22 21 20 20 19 19 19 19 19 20 21 22 22 23 24 24 25 24
33 33 32 31 31 30 31 31 32 31 31 30 29 29 28 28 28 29 29 29 30 29 29 28 27 26 24 22 20 18 16 15 14 13 12 11 11 11 12 12 13 14 15 16 17 18 18 19 19 20 20 21 20 20 20 19 19 19 20 20 21 22 23 24 24 24 24 24 24
32 32 31 31 31 31 32 32 32 31 30 30 29 29 29 29 29 30 30 30 29 29 28 26 25 23 21 19 17 15 14 13 12 12 11 11 12 12 12 13 14 15 15 16 17 17 18 18 18 18 19 20 21 21 21 21 21 21 22 22 23 23 24 24 25 25 25 24 24
32 31 31 31 32 32 33 32 32 31 30 29 29 29 29 30 30 30 30 30 28 27 25 23 22 20 18 16 15 14 13 12 11 11 11 12 12 12 13 14 14 15 16 16 17 17 17 18 18 18 19 20 21 22 23 23 23 23 23 24 24 24 24 25 25 25 24 23 23
32 31 31 32 32 33 33 32 31 30 30 29 30 30 31 31 31 30 29 28 26 24 22 21 19 17 15 14 13 12 12 12 11 12 12 12 13 13 14 14 15 16 16 17 17 17 17 17 18 19 20 21 22 23 24 24 24 24 24 25 25 25 25 24 24 24 23 23 22
32 32 32 33 34 34 33 32 31 30 30 30 31 31 32 32 30 29 27 25 23 22 20 18 16 15 14 13 12 12 12 12 12 12 13 13 14 14 15 15 16 16 16 17 17 17 17 18 19 20 20 22 23 24 24 24 24 24 25 25 25 25 25 24 24 24 23 23 22
32 33 34 35 35 34 33 32 31 31 31 31 32 32 32 30 29 27 25 23 21 19 17 16 14 13 13 12 12 12 12 12 13 13 13 14 15 15 16 16 16 16 16 16 17 17 18 18 19 20 21 22 23 24 24 24 24 25 25 25 25 25 25 25 25 24 24 23 23
34 35 36 36 36 34 33 31 31 31 32 32 32 31 30 28 26 24 22 20 18 16 15 14 13 12 12 12 12 12 12 13 14 14 15 15 16 16 16 16 16 16 16 16 17 18 19 20 20 21 21 22 23 23 23 24 25 25 26 26 26 25 26 25 25 25 24 24 23
36 37 37 36 35 33 32 31 31 32 32 32 31 30 27 25 23 20 19 17 16 15 14 13 13 12 12 12 13 13 13 14 14 15 16 17 17 16 16 16 16 16 16 17 18 19 20 20 21 21 21 22 23 24 24 25 26 27 27 27 27 26 26 26 25 25 24 24 23
38 37 37 35 33 32 31 31 32 32 32 31 29 26 24 22 19 18 16 15 14 13 13 13 12 13 13 13 14 14 15 15 16 16 17 17 17 17 16 16 15 16 16 17 19 20 20 21 21 21 21 22 24 25 27 27 28 28 28 27 27 27 26 26 25 24 24 23 23
38 36 35 33 32 31 31 32 32 31 30 28 25 23 20 18 17 15 14 14 13 13 13 13 13 13 13 14 14 15 16 17 17 17 17 18 17 16 16 15 15 16 17 18 19 20 21 21 21 21 22 24 26 28 28 29 28 28 28 28 28 27 27 26 25 24 24 24 24
36 34 32 31 31 31 32 32 30 29 27 24 22 19 17 16 15 14 13 13 13 13 13 13 14 14 15 15 16 16 17 18 18 18 18 17 17 16 16 16 16 17 18 19 20 20 21 21 21 23 25 28 29 30 29 29 29 28 28 28 28 27 27 26 25 24 24 25 27
34 32 31 31 31 31 31 30 28 26 23 20 18 17 15 14 13 13 13 13 13 13 13 14 14 15 16 16 17 17 18 19 18 18 17 17 17 17 17 17 17 18 19 19 20 21 21 21 22 25 28 30 30 30 29 29 28 28 28 28 28 27 27 26 25 26 27 29 33
32 31 31 31 31 30 29 27 25 22 19 17 16 15 14 13 13 13 13 13 13 14 14 15 15 16 17 18 18 19 18 18 18 18 17 16 17 17 18 18 19 19 20 20 21 21 22 22 24 27 30 31 30 29 29 29 28 28 28 28 27 27 26 26 27 30 33 36 40
32 32 32 31 30 28 26 23 21 18 16 15 14 13 13 13 13 13 14 14 14 15 15 16 17 18 19 19 19 19 18 18 17 17 17 17 17 18 19 20 20 20 20 21 21 22 23 24 27 29 30 30 30 29 29 28 28 28 27 27 27 27 27 29 33 37 41 44 46
32 32 31 30 28 25 22 20 17 16 14 14 13 13 13 13 13 14 14 15 16 16 17 18 19 20 20 20 20 19 18 17 17 16 16 17 18 19 20 21 21 21 21 22 22 23 24 26 28 29 30 30 29 29 28 28 28 28 27 27 27 29 32 37 41 44 46 46 45